Dodge City, KS

2:05 PM CST on February 14, 2016 (GMT -0600)
Dodge City Regional

Weather History for KDDC - February, 2014

Change the Weather History Date:

Thursday, February 13, 2014

  Actual Average (KGCK) Record (KGCK)
Temperature  
Mean Temperature 40 °F 34 °F  
Max Temperature 52 °F 48 °F 82 °F (1954)
Min Temperature 27 °F 21 °F -1 °F (1965)
Degree Days  
Heating Degree Days 26 31  
Month to date heating degree days 418  
Since 1 July heating degree days 3598  
Cooling Degree Days 0 0  
Month to date cooling degree days 0  
Year to date cooling degree days 0  
Moisture  
Dew Point 27 °F    
Average Humidity 63    
Maximum Humidity 79    
Minimum Humidity 30    
Precipitation  
Precipitation 0.00 in 0.02 in 0.98 in (1969)
Month to date precipitation 0.22  
Year to date precipitation 0.56  
Sea Level Pressure  
Sea Level Pressure 29.88 in    
Wind  
Wind Speed 12 mph (SW)    
Max Wind Speed 17 mph    
Max Gust Speed -    
Visibility 10 miles    
Events      
T = Trace of Precipitation, MM = Missing Value Source: NWS Daily Summary

Daily Weather History Graph

Daily Weather History Graph

Search for Another Location

Airport or City:

Trip Planner

Search our weather history database for the weather conditions in past years. The results will help you decide how hot, cold, wet, or windy it might be!

Date:

Astronomy

Feb. 13, 2014 Rise Set
Actual Time 7:31 AM CST 6:16 PM CST
Civil Twilight 7:04 AM CST 6:43 PM CST
Nautical Twilight 6:34 AM CST 7:14 PM CST
Astronomical Twilight 6:03 AM CST 7:45 PM CST
Moon 5:26 PM CST (2/13) 6:25 AM CST (2/13)
Length of Visible Light 11h 39m
Length of Day
10h 45m
Waxing Gibbous, 99% of the Moon is Illuminated
Feb 13
Waxing Gibbous
Feb 14
Full
Feb 22
Last Quarter
Mar 1
New
Mar 8
First Quarter

Hourly Weather History & Observations

Time (CST) Temp. Windchill Dew Point Humidity Pressure Visibility Wind Dir Wind Speed Gust Speed Precip Events Conditions
12:52 AM 26.1 °F 13.6 °F 19.9 °F 78% 29.93 in 10.0 mi South 16.1 mph - N/A   Clear
1:52 AM 28.0 °F 15.7 °F 21.0 °F 75% 29.91 in 10.0 mi SSW 17.3 mph - N/A   Clear
2:52 AM 28.9 °F 16.9 °F 21.0 °F 72% 29.91 in 10.0 mi SSW 17.3 mph - N/A   Clear
3:52 AM 30.0 °F 18.3 °F 21.0 °F 69% 29.89 in 10.0 mi SSW 17.3 mph - N/A   Clear
4:52 AM 28.9 °F 18.2 °F 21.0 °F 72% 29.89 in 10.0 mi SW 13.8 mph - N/A   Clear
5:52 AM 28.0 °F 18.1 °F 21.0 °F 75% 29.91 in 10.0 mi WSW 11.5 mph - N/A   Clear
6:52 AM 28.0 °F 17.0 °F 21.0 °F 75% 29.93 in 10.0 mi West 13.8 mph - N/A   Clear
7:52 AM 30.9 °F 20.7 °F 21.9 °F 69% 29.93 in 10.0 mi WNW 13.8 mph - N/A   Clear
8:52 AM 34.0 °F 24.2 °F 24.1 °F 67% 29.95 in 10.0 mi NW 15.0 mph - N/A   Clear
9:52 AM 41.0 °F 35.2 °F 28.0 °F 60% 29.96 in 10.0 mi NNW 9.2 mph - N/A   Clear
10:52 AM 43.0 °F 37.2 °F 28.9 °F 58% 29.97 in 10.0 mi NNW 10.4 mph - N/A   Clear
11:52 AM 45.0 °F 39.7 °F 30.0 °F 56% 29.96 in 10.0 mi North 10.4 mph - N/A   Clear
12:52 PM 45.0 °F 40.1 °F 30.9 °F 58% 29.92 in 10.0 mi North 9.2 mph - N/A   Clear
1:52 PM 50.0 °F - 30.0 °F 46% 29.88 in 10.0 mi Calm Calm - N/A   Clear
2:52 PM 51.1 °F - 28.9 °F 43% 29.87 in 10.0 mi Calm Calm - N/A   Clear
3:52 PM 51.1 °F - 30.9 °F 46% 29.86 in 10.0 mi South 5.8 mph - N/A   Clear
4:52 PM 48.9 °F - 32.0 °F 52% 29.84 in 10.0 mi South 8.1 mph - N/A   Clear
5:52 PM 44.1 °F 40.1 °F 32.0 °F 63% 29.84 in 10.0 mi South 6.9 mph - N/A   Clear
6:52 PM 37.9 °F 31.5 °F 30.0 °F 73% 29.85 in 10.0 mi SSW 9.2 mph - N/A   Clear
7:52 PM 39.0 °F 34.0 °F 30.0 °F 70% 29.82 in 10.0 mi South 6.9 mph - N/A   Clear
8:52 PM 37.9 °F 32.7 °F 30.0 °F 73% 29.81 in 10.0 mi SSW 6.9 mph - N/A   Clear
9:52 PM 35.1 °F 28.6 °F 28.9 °F 78% 29.78 in 10.0 mi SSW 8.1 mph - N/A   Clear
10:52 PM 36.0 °F 29.0 °F 30.0 °F 79% 29.74 in 10.0 mi SSW 9.2 mph - N/A   Clear
11:52 PM 39.0 °F 33.4 °F 30.9 °F 73% 29.78 in 10.0 mi West 8.1 mph - N/A   Mostly Cloudy